KINDAKUN ROCKS(AUT) current weather conditions

sailwx.info

Wind from 270 at 7 knots

Air temperature 6.0° C
Dewpoint 3.0° C

Last reported at 2017-Jan-24 01:00 UTC.
Time now 2017-Jan-24 02:54 UTC

Location: N 53°19' W 132°46'.
View on Google Maps.

See reports from other nearby stations

  
Tides and Currents Weather Stations Pressure Air Temp Water Temp Dewpoint Dewpoint Depression Visibility Wind Speed Wind Dir Waves Ship Positions
date/time (UTC)wind fromknots sea level pressurealtimeterstation pressurevisibilityair tempwater tempwave heightnotes
2017-Jan-24 01:00 270 7 6.0
2017-Jan-24 00:00 260 4 4.5
2017-Jan-23 23:00 250 5 5.1
2017-Jan-23 22:00 300 13 4.9
2017-Jan-23 21:00 290 8 5.0
2017-Jan-23 20:00 280 7 6.0
2017-Jan-23 19:00 270 6 6.6
2017-Jan-23 18:00 240 12 7.1
2017-Jan-23 17:00 230 6 7.6
2017-Jan-23 16:00 170 13 8.0
2017-Jan-23 15:00 150 9 8.0
2017-Jan-23 14:00 130 5 8.0
2017-Jan-23 13:00 140 4 7.9
2017-Jan-23 12:00 130 5 7.9
2017-Jan-23 11:00 120 5 7.4
2017-Jan-23 10:00 110 6 5.5
2017-Jan-23 09:00 100 5 6.4
2017-Jan-23 08:00 050 1 5.5
2017-Jan-23 07:00 120 5 5.5
2017-Jan-23 06:00 050 0 7.0
2017-Jan-23 05:00 100 7 6.6
2017-Jan-23 04:00 110 1 7.0
2017-Jan-23 03:00 220 2 8.0
2017-Jan-23 02:00 340 0 7.6
2017-Jan-23 01:00 330 4 8.0
2017-Jan-23 00:00 210 1 9.2
2017-Jan-22 23:00 280 0 9.0
2017-Jan-22 22:00 220 0 8.4
2017-Jan-22 21:00 010 0 8.0
2017-Jan-22 20:00 360 0 7.4
2017-Jan-22 19:00 7.0
2017-Jan-22 18:00 150 1 6.9
2017-Jan-22 17:00 090 1 6.0
2017-Jan-22 16:00 100 4 6.7
2017-Jan-22 15:00 140 7 7.1
2017-Jan-22 14:00 140 13 6.5
2017-Jan-22 13:00 150 11 8.0
2017-Jan-22 12:00 130 13 gusting 18 7.8
2017-Jan-22 11:00 150 13 7.2
2017-Jan-22 10:00 100 12 gusting 17 7.5
2017-Jan-22 09:00 090 14 gusting 24 8.0
2017-Jan-22 08:00 080 13 gusting 21 8.0
2017-Jan-22 07:00 080 13 gusting 25 7.6
2017-Jan-22 06:00 080 9 gusting 18 7.0
2017-Jan-22 05:00 080 15 gusting 27 7.2
2017-Jan-22 04:00 090 13 gusting 20 7.2
2017-Jan-22 03:00 080 13 gusting 20 6.9
2017-Jan-22 02:00 090 13 gusting 20 6.8